Regional Weather Roundup
Issued by NWS

Home | Current Version | Previous Version | Text Only | Print | Product List | Glossary Off
Versions: 1 2 3 4 5 6 7 8 9 10 11 12 13 14 15 16 17 18 19 20 21 22 23 24 25 26 27 28 29 30 31 32 33 34 35 36 37 38 39 40 41 42 43 44 45 46 47 48 49 50

000
ASUS43 KLMK 171410
RWRKY
KENTUCKY REGIONAL WEATHER ROUNDUP
NATIONAL WEATHER SERVICE LOUISVILLE KY
900 AM EST WED JAN 17 2018

NOTE "FAIR" INDICATES FEW OR NO CLOUDS BELOW 12,000 FEET
WITH NO SIGNIFICANT WEATHER AND/OR OBSTRUCTIONS TO VISIBILITY.

KYZ001>023-026-027-061>063-070>075-171500-
WESTERN AND SOUTH CENTRAL KENTUCKY

CITY           SKY/WX    TMP DP  RH WIND       PRES   REMARKS
PADUCAH        FAIR       4   0  83 W3        30.69R
HENDERSON      FLURRIES  10   4  76 NW9       30.68S WCI  -3
OWENSBORO      LGT SNOW  11   6  81 NW9       30.67R WCI  -2
HOPKINSVILLE   CLOUDY     9   5  85 NW7       30.66R BLWGSNOWWCI  -3
BOWLING GREEN  LGT SNOW  10   5  80 N3        30.65R
GLASGOW        LGT SNOW   8   5  86 NW3       30.62R
$$

KYZ024-025-028>034-038-045-046-053-171500-
NORTH CENTRAL KENTUCKY

CITY           SKY/WX    TMP DP  RH WIND       PRES   REMARKS
LOUISVILLE/SDF LGT SNOW  11   5  77 NW8       30.62R WCI  -1
LOUISVILLE/LOU LGT SNOW  10   6  84 NW3       30.62R FOG
FORT KNOX      CLOUDY     8   4  84 W6        30.57S BLWGSNOWWCI  -2
$$

KYZ035>037-039>044-047>052-055>060-089>105-171500-
NORTHEAST KENTUCKY

CITY           SKY/WX    TMP DP  RH WIND       PRES   REMARKS
LEXINGTON      LGT SNOW   8   3  80 CALM      30.55S VSB 1
COVINGTON      LGT SNOW   8   6  92 W7        30.54R VSB 1   WCI  -3
FRANKFORT      LGT SNOW   8   3  80 W3        30.56R VSB 1
$$

KYZ054-064>069-076>088-106>120-171500-
SOUTHEAST KENTUCKY

CITY           SKY/WX    TMP DP  RH WIND       PRES   REMARKS
JACKSON        LGT SNOW   5   1  83 VRB3      30.48S FOG
LONDON         LGT SNOW   6   1  80 N6        30.51S WCI  -4
SOMERSET       LGT SNOW   7   3  85 CALM      30.57S
MIDDLESBORO    FLURRIES   7   1  76 CALM      30.50R
MONTICELLO     LGT SNOW   7   4  87 N16       30.58R FOG     WCI -11
$$





USA.gov is the U.S. government's official web portal to all federal, state and local government web resources and services.